Showing default

COSMOS 2532, 43753

Orbit data source: Space-Track

COSMOS 2532, 43753 is a payload satellite owned by VVKO VKS (CIS) in LEO that was launched on Fri, 30 Nov 2018 UTC via an ROKOT launch vehicle from the Plesetsk Missile And Space Complex (PKMTR). Payload-class satellites include a variety of spacecraft equipped with specific instruments for various scientific and technological missions. These include communications satellites like Starlink; space stations such as the ISS; scientific satellites like the Hubble; Earth observation satellites from companies like Planet Labs, Umbra, and HawkEye 360; GPS; miniature CubeSats for education and research; and military/defense satellites.

Loading next visibility...
Identifier
43753, 2018-097C
Orbit
LEO
Last TLE update
9 hours ago
Origin
Manufacturer
Resehetnev ISS
Mission
Operational Defense Communications
Bus & Motor
STRELA-3M, Unknown motor
Mass
280 kg wet, 280 kg dry
Launch date (UTC)
2018-11-30 (7 years ago)
Launch vehicle
ROKOT
Launch site
Plesetsk Missile And Space Complex (PKMTR)
Object type
Payload
Rocket body
Debris
Shape & HBR
Cyl + 1 Ant, 7 m
Radar Cross Section
1.583 m², Large (>1 m²)

Expand to show TLE details & history

TLE from 9 hours ago
0 COSMOS 2532
1 43753U 18097C   25189.94598713  .00000041  00000-0  22117-3 0  9999
2 43753  82.5125  75.2264 0019086  83.8474 276.4780 12.42859575299632
Epoch: 2025-07-08T22:42Z
TLE epoch observation values (Epoch: 2025-07-08T22:42:13.288Z)
Latitude
0.00005°
Longitude
167.53736°
Altitude
1,495.537 km
Speed
7.117 km/s
True Right ascension
05h 00m 54s
True Declination
0° 00' 00"
Sunlit
Object was in daylight at epoch
Visualization orbit readout
Latitude
-50.39623°
Longitude
-3.59918°
Altitude
1,526.664 km
Speed
7.096 km/s
Apparent Right ascension
12h 54m 24s
Apparent Declination
-74° 16' 39"
Sunlit
Object is in full shadow
Visualization observer readout
Local Sidereal Time
19:49:35
Azimuth
200.689° SSW
Elevation
-41.853°
Doppler factor
1
Orbital elements
Apogee altitude
1,506.876 km
Perigee altitude
1,476.835 km
Semi-major axis
7,869.992 km
Eccentricity
0.00191
Inclination
82.5125°
RAAN
75.2264°
Arg. of periapsis
83.8474°
True anomaly
Unknown
Mean anomaly
276.478°
Eccentric anomaly
Unknown
Mean motion
3.10872 °/min
Orbital period
115.8 mins
BSTAR
0.00022117
Loading maneuver chart data...
Loading SW <> Apogee altitude chart data...
Loading historical data...
Loading historical data...
Loading historical data...
Loading historical data...
Loading historical data...
Loading historical data...
Loading historical data...
Other satellites on launch #97 in the year 2018 (2018-11-30 UTC)

COSMOS 2532 Visibility forecast

Observer location: undefined°, undefined°

Span
Click to sort rows by Start time (UTC) header in descending order
Start Az.
Max El. time (UTC)
Max El. Az.
Max El.
End time (UTC)
End Az.
15 mins2025-07-09 16:11:03.511Z152.715° SSE2025-07-09 16:18:03.511Z91.606° ESE34.397°2025-07-09 16:26:03.511Z20.985° NNE
14 mins2025-07-09 18:09:03.511Z226.657° WSW2025-07-09 18:15:03.511Z285.988° WNW32.769°2025-07-09 18:23:03.511Z354.279° N
10 mins2025-07-10 02:23:03.511Z25.943° NE2025-07-10 02:28:03.511Z65.18° ENE18.995°2025-07-10 02:33:03.511Z103.667° ESE
15 mins2025-07-10 04:19:03.511Z350.446° N2025-07-10 04:26:03.511Z235.108° WSW44.781°2025-07-10 04:34:03.511Z178.29° S
7 mins2025-07-10 06:18:03.511Z307.26° NW2025-07-10 06:21:03.511Z285.144° WNW14.638°2025-07-10 06:25:03.511Z256.098° W
|